Location: Boiro
(42.6475°N, 8.8834°W)
Time: 06:02:26
(UTC+02:00)

SL-8 DEB - Pass Details

Date: 04 July 2022
Orbit: 890 x 1013 km, 83.1° (Epoch: 16 August)

Event Time Altitude Azimuth Distance (km) Brightness Sun altitude
Rises 01:54:25 0° 346° (NNW) 3,603 ? -23.6°
Reaches altitude 10° 01:57:01 10° 340° (NNW) 2,637 ? -23.7°
Maximum altitude 02:02:39 45° 270° (W) 1,228 ? -23.9°
Enters shadow 02:04:25 35° 228° (SW) 1,422 ? -23.9°
